COSMOS 2392 DEB

基本信息
目录编号:
27494
目录名称:
COSMOS 2392 DEB
国际标识:
2002-037H
轨道中心:
EARTH
物体状态:
在轨
发射日期:
2002-07-25 UTC
轨道信息
数据来源: 国际轨道数据
星历时间: 2026-07-14T02:40:18+0800
半长轴: 8010.672km
偏心率: 0.0570105
轨道倾角: 63.435°
近地点辐角: 331.832°
升交点赤经: 264.408°
平近点角: 117.860°
近地点: 1175.842km
远地点: 2089.228km
周期: 118.922分钟
每日圈数: 12.108751
详细信息
发射场:
TTMTR
轨道高度:
LEO
数据来源:
AOE Integration Group
参考系:
TEME
时间系统:
UTC
历元类型:
SGP4
2D轨道图
3D轨道图
轨道高度分析图
轨道倾角分析图
轨道综合分析图
查看轨道综合分析图